User: anonymous   Login
Location: Lecco
(45.8566°N, 9.3977°E)
Time: 11:06:02
(UTC+02:00)
Language:

SR - Orbit

View from above orbital plane
View from above orbital plane
View from above satellite
View from above satellite

Ground track
Ground track

The orbit data is extracted from the following two-line orbital elements,

1    46U 60007B   20226.53466836 -.00000048 +00000-0 +13441-4 0  9996
2    46 066.6888 252.2914 0202286 088.6589 273.7682 14.49307813147381
Epoch (UTC): 13 August 2020 12:49:55
Eccentricity: 0.0202286
inclination: 66.6888°
perigee height: 584 km
apogee height: 871 km
right ascension of ascending node: 252.2914°
argument of perigee: 88.6589°
revolutions per day: 14.49307813
mean anomaly at epoch: 273.7682°
orbit number at epoch: 14738

The dashed part of the orbit path shows where the satellite is in the earth's shadow,  

DLR